When you browse on this site, cookies collect data to enhance your experience and personalize the content and advertising you see.
Visit our Privacy Policy to learn more. By continuing to use the site, you agree to this use of cookies and data.
  • In United Kingdom
  • List of Countries
  • For 7 days
  • Water Temperature
  • Weather Map
  • Weather Widgets
  • user-avatar
    Login

    Hourly Weather Newcastle

    Today, 22 August, Thursday

    Time Temperature Precipitation Wind Pressure Humidity
    00:00 +12°C° 0 mm 7 mps 760 mmHg 59%
    01:00 +12°C° 0 mm 8 mps 759 mmHg 60%
    02:00 +12°C° 0 mm 8 mps 759 mmHg 61%
    03:00 +12°C° 0 mm 8 mps 759 mmHg 62%
    04:00 +12°C° 0 mm 8 mps 758 mmHg 64%
    05:00 +12°C° 0 mm 8 mps 758 mmHg 62%
    06:00 +12°C° 0 mm 8 mps 758 mmHg 59%
    07:00 +13°C° 0 mm 8 mps 758 mmHg 56%
    08:00 +15°C° 0 mm 8 mps 758 mmHg 51%
    09:00 +17°C° 0 mm 8 mps 758 mmHg 46%
    10:00 +18°C° 0 mm 8 mps 758 mmHg 42%
    11:00 +20°C° 0 mm 8 mps 758 mmHg 40%
    12:00 +19°C° 0 mm 9 mps 759 mmHg 38%
    13:00 +21°C° 0 mm 9 mps 759 mmHg 36%
    14:00 +18°C° 0 mm 9 mps 759 mmHg 41%
    15:00 +16°C° 0 mm 9 mps 760 mmHg 46%
    16:00 +15°C° 0 mm 9 mps 761 mmHg 50%
    17:00 +13°C° 0 mm 9 mps 762 mmHg 52%
    18:00 +12°C° 0 mm 8 mps 763 mmHg 54%
    19:00 +11°C° 0 mm 8 mps 764 mmHg 57%
    20:00 +11°C° 0 mm 8 mps 764 mmHg 58%
    21:00 +11°C° 0 mm 8 mps 765 mmHg 60%
    22:00 +10°C° 0 mm 7 mps 766 mmHg 61%
    23:00 +9°C° 0 mm 7 mps 766 mmHg 63%

    Tomorrow, 23 August, Friday

    Time Temperature Precipitation Wind Pressure Humidity
    00:00 +9°C° 0 mm 7 mps 766 mmHg 65%
    01:00 +8°C° 0 mm 6 mps 766 mmHg 67%
    02:00 +8°C° 0 mm 6 mps 767 mmHg 66%
    03:00 +8°C° 0 mm 6 mps 767 mmHg 65%
    04:00 +7°C° 0 mm 6 mps 767 mmHg 64%
    05:00 +7°C° 0 mm 5 mps 767 mmHg 64%
    06:00 +6°C° 0 mm 5 mps 768 mmHg 63%
    07:00 +5°C° 0 mm 5 mps 768 mmHg 63%
    08:00 +7°C° 0 mm 4 mps 768 mmHg 59%
    09:00 +11°C° 0 mm 4 mps 769 mmHg 54%
    10:00 +13°C° 0 mm 3 mps 769 mmHg 50%
    11:00 +14°C° 0 mm 3 mps 768 mmHg 47%
    12:00 +17°C° 0 mm 2 mps 768 mmHg 44%
    13:00 +19°C° 0 mm 2 mps 767 mmHg 42%
    14:00 +18°C° 0 mm 2 mps 767 mmHg 44%
    15:00 +18°C° 0 mm 2 mps 766 mmHg 46%
    16:00 +17°C° 0 mm 2 mps 766 mmHg 48%
    17:00 +15°C° 0 mm 2 mps 766 mmHg 59%
    18:00 +13°C° 0 mm 2 mps 767 mmHg 70%
    19:00 +9°C° 0 mm 3 mps 767 mmHg 81%
    20:00 +9°C° 0 mm 3 mps 767 mmHg 84%
    21:00 +8°C° 0 mm 3 mps 767 mmHg 86%
    22:00 +8°C° 0 mm 3 mps 767 mmHg 89%
    23:00 +7°C° 0 mm 3 mps 767 mmHg 88%

    Day after tomorrow, 24 August, Saturday

    Time Temperature Precipitation Wind Pressure Humidity
    00:00 +7°C° 0 mm 3 mps 766 mmHg 87%
    01:00 +5°C° 0 mm 3 mps 766 mmHg 86%
    02:00 +5°C° 0 mm 3 mps 766 mmHg 85%
    03:00 +5°C° 0 mm 3 mps 765 mmHg 85%
    04:00 +5°C° 0 mm 3 mps 765 mmHg 84%
    05:00 +5°C° 0 mm 4 mps 765 mmHg 79%
    06:00 +6°C° 0 mm 4 mps 765 mmHg 74%
    07:00 +6°C° 0 mm 5 mps 766 mmHg 68%
    08:00 +10°C° 0 mm 5 mps 765 mmHg 57%
    09:00 +14°C° 0 mm 6 mps 765 mmHg 47%
    10:00 +18°C° 0 mm 7 mps 765 mmHg 36%
    11:00 +20°C° 0 mm 7 mps 764 mmHg 34%
    12:00 +21°C° 0 mm 6 mps 763 mmHg 32%
    13:00 +22°C° 0 mm 6 mps 762 mmHg 31%
    14:00 +22°C° 0 mm 6 mps 762 mmHg 33%
    15:00 +22°C° 0 mm 6 mps 761 mmHg 35%
    16:00 +22°C° 0 mm 5 mps 761 mmHg 37%
    17:00 +20°C° 0 mm 5 mps 761 mmHg 44%
    18:00 +18°C° 0 mm 4 mps 762 mmHg 52%
    19:00 +15°C° 0 mm 4 mps 762 mmHg 59%
    20:00 +14°C° 0 mm 3 mps 762 mmHg 63%
    21:00 +13°C° 0 mm 3 mps 762 mmHg 67%
    22:00 +12°C° 0 mm 3 mps 762 mmHg 71%
    23:00 +12°C° 0 mm 3 mps 762 mmHg 74%

    25 August, Sunday

    Time Temperature Precipitation Wind Pressure Humidity
    00:00 +11°C° 0 mm 3 mps 761 mmHg 78%
    01:00 +12°C° 0 mm 2 mps 761 mmHg 81%
    02:00 +11°C° 0 mm 3 mps 761 mmHg 83%
    03:00 +10°C° 0 mm 3 mps 761 mmHg 86%
    04:00 +10°C° 0 mm 3 mps 761 mmHg 88%
    05:00 +10°C° 0 mm 3 mps 761 mmHg 88%
    06:00 +10°C° 0 mm 4 mps 761 mmHg 88%
    07:00 +11°C° 0 mm 4 mps 761 mmHg 87%
    08:00 +14°C° 0 mm 4 mps 761 mmHg 71%
    09:00 +18°C° 0 mm 4 mps 761 mmHg 54%
    10:00 +21°C° 0 mm 4 mps 761 mmHg 38%
    11:00 +22°C° 0 mm 4 mps 761 mmHg 34%
    12:00 +24°C° 0 mm 3 mps 760 mmHg 31%
    13:00 +25°C° 0 mm 3 mps 760 mmHg 27%
    14:00 +23°C° 0 mm 4 mps 760 mmHg 34%
    15:00 +21°C° 0 mm 5 mps 760 mmHg 41%
    16:00 +20°C° 0 mm 6 mps 760 mmHg 48%
    17:00 +17°C° 0 mm 6 mps 761 mmHg 60%
    18:00 +16°C° 0 mm 5 mps 762 mmHg 72%
    19:00 +14°C° 0 mm 4 mps 763 mmHg 84%
    20:00 +14°C° 0.4 mm 4 mps 763 mmHg 86%
    21:00 +13°C° 0.4 mm 4 mps 764 mmHg 89%
    22:00 +13°C° 0.4 mm 3 mps 764 mmHg 92%
    23:00 +13°C° 0.7 mm 3 mps 764 mmHg 92%

    26 August, Monday

    Time Temperature Precipitation Wind Pressure Humidity
    00:00 +12°C° 0.7 mm 3 mps 764 mmHg 92%
    01:00 +12°C° 0.7 mm 3 mps 765 mmHg 93%
    02:00 +12°C° 0.7 mm 3 mps 764 mmHg 93%
    03:00 +12°C° 0.7 mm 3 mps 764 mmHg 93%
    04:00 +12°C° 0.7 mm 3 mps 764 mmHg 93%
    05:00 +12°C° 0.5 mm 3 mps 765 mmHg 93%
    06:00 +11°C° 0.5 mm 3 mps 765 mmHg 93%
    07:00 +11°C° 0.5 mm 3 mps 766 mmHg 93%
    08:00 +12°C° 0.4 mm 3 mps 766 mmHg 89%
    09:00 +13°C° 0.4 mm 3 mps 766 mmHg 86%
    10:00 +14°C° 0.4 mm 3 mps 766 mmHg 82%
    11:00 +14°C° 0.3 mm 3 mps 766 mmHg 80%
    12:00 +14°C° 0.3 mm 3 mps 765 mmHg 78%
    13:00 +16°C° 0.3 mm 3 mps 765 mmHg 76%
    14:00 +14°C° 0.2 mm 4 mps 765 mmHg 75%
    15:00 +14°C° 0.2 mm 4 mps 764 mmHg 74%
    16:00 +14°C° 0.2 mm 4 mps 764 mmHg 73%
    17:00 +14°C° 0.1 mm 4 mps 765 mmHg 77%
    18:00 +13°C° 0.1 mm 3 mps 766 mmHg 80%
    19:00 +12°C° 0.1 mm 3 mps 767 mmHg 83%
    20:00 +13°C° 0.4 mm 2 mps 767 mmHg 86%
    21:00 +13°C° 0.4 mm 2 mps 767 mmHg 89%
    22:00 +13°C° 0.4 mm 1 mps 767 mmHg 92%
    23:00 +12°C° 0.4 mm 2 mps 767 mmHg 93%

    27 August, Tuesday

    Time Temperature Precipitation Wind Pressure Humidity
    00:00 +12°C° 0.4 mm 2 mps 767 mmHg 93%
    01:00 +12°C° 0.4 mm 2 mps 767 mmHg 93%
    02:00 +12°C° 0.1 mm 2 mps 766 mmHg 93%
    03:00 +12°C° 0.1 mm 2 mps 766 mmHg 92%
    04:00 +12°C° 0.1 mm 2 mps 766 mmHg 91%
    05:00 +12°C° 0.3 mm 2 mps 766 mmHg 92%
    06:00 +12°C° 0.3 mm 2 mps 767 mmHg 92%
    07:00 +12°C° 0.3 mm 2 mps 767 mmHg 93%
    08:00 +13°C° 0.3 mm 3 mps 767 mmHg 87%
    09:00 +14°C° 0.3 mm 3 mps 767 mmHg 82%
    10:00 +16°C° 0.3 mm 3 mps 767 mmHg 76%
    11:00 +17°C° 0.2 mm 4 mps 766 mmHg 74%
    12:00 +16°C° 0.2 mm 5 mps 766 mmHg 71%
    13:00 +17°C° 0.2 mm 5 mps 765 mmHg 68%
    14:00 +16°C° 0.5 mm 5 mps 765 mmHg 72%
    15:00 +16°C° 0.5 mm 5 mps 765 mmHg 76%
    16:00 +15°C° 0.5 mm 5 mps 764 mmHg 80%
    17:00 +14°C° 0.4 mm 5 mps 765 mmHg 83%
    18:00 +13°C° 0.4 mm 4 mps 766 mmHg 86%
    19:00 +12°C° 0.4 mm 4 mps 766 mmHg 89%
    20:00 +12°C° 0.4 mm 4 mps 766 mmHg 90%
    21:00 +11°C° 0.4 mm 4 mps 766 mmHg 92%
    22:00 +11°C° 0.4 mm 4 mps 766 mmHg 93%
    23:00 +11°C° 0.3 mm 4 mps 766 mmHg 93%
    Show more